Voltar ao catálogo

MIMIR 1

AtivoCiênciaSSO
NORAD 68490·PAYLOAD·🇳🇴 Norway

Lançado Mar 30, 2026 de Vandenberg Space Force Base

Loading…

Próximas Passagens (próximas 24 horas)

TLE

AtualizadoSource: Space-Track

Época: Sep 14, 2026, 08:02 UTC

1 68490U 26067CC  26257.33481456  .00001375  00000-0  14452-3 0  9999
2 68490  97.7707 214.1047 0003683  90.4108 269.7533 14.91063061 25000

Acompanhe MIMIR 1 em tempo real com AllMySat

Download on the App Store